Weather History for Lincoln, NE

Change the Weather History Date:

Saturday, November 19, 2011

  Actual Average Record
Temperature  
Mean Temperature 36 °F 37 °F  
Max Temperature 47 °F 48 °F 78 °F (2007)
Min Temperature 25 °F 26 °F 4 °F (1985)
Degree Days  
Heating Degree Days 29 28  
Month to date heating degree days 435 439  
Since 1 July heating degree days 913 918  
Cooling Degree Days 0 0  
Month to date cooling degree days 0 0  
Year to date cooling degree days 1296 1173  
Moisture  
Dew Point 29 °F    
Average Humidity 88    
Maximum Humidity 100    
Minimum Humidity 75    
Precipitation  
Precipitation 0.00 in 0.04 in 2.06 in (1953)
Month to date precipitation 1.61 0.97  
Year to date precipitation 27.54 27.54  
Snow  
Snow 0.00 in 0.10 in - ()
Month to date snowfall T 1.0  
Since 1 July snowfall T 1.7  
Snow Depth 0.00 in    
Sea Level Pressure  
Sea Level Pressure 29.82 in    
Wind  
Wind Speed 13 mph (North)    
Max Wind Speed 32 mph    
Max Gust Speed 37 mph    
Visibility 10 miles    
Events      
T = Trace of Precipitation, MM = Missing Value Source: NWS Daily Summary

Daily Weather History Graph

Daily Weather History Graph

Search for Another Location

Airport:

Trip Planner

Search our weather history database for the weather conditions in past years. The results will help you decide how hot, cold, wet, or windy it might be!

Date:

Astronomy

Nov. 19, 2011 Rise Set
Actual Time 7:18 AM CST 5:05 PM CST
Civil Twilight 6:48 AM CST 5:35 PM CST
Nautical Twilight 6:15 AM CST 6:08 PM CST
Astronomical Twilight 5:42 AM CST 6:41 PM CST
Moon 12:38 AM CST (11/19) 1:26 PM CST (11/19)
Length of Visible Light 10h 46m
Length of Day
9h 47m
Last Quarter, 38% of the Moon is Illuminated
Nov 19
Last Quarter
Nov 25
New
Dec 2
First Quarter
Dec 10
Full
Dec 17
Last Quarter

Hourly Weather History & Observations

Time (CST) Temp. Windchill Dew Point Humidity Pressure Visibility Wind Dir Wind Speed Gust Speed Precip Events Conditions
12:54 AM 37.9 °F - 35.1 °F 89% 29.63 in 10.0 mi Calm Calm - N/A   Clear
1:54 AM 37.0 °F - 34.0 °F 89% 29.61 in 10.0 mi Calm Calm - N/A   Clear
2:54 AM 34.0 °F 28.0 °F 33.1 °F 96% 29.61 in 10.0 mi ENE 6.9 mph - N/A   Clear
3:17 AM 37.4 °F 33.8 °F 35.6 °F 93% 29.58 in 10.0 mi East 4.6 mph - N/A   Mostly Cloudy
3:54 AM 41.0 °F 37.1 °F 37.0 °F 86% 29.57 in 10.0 mi East 5.8 mph - N/A   Overcast
4:54 AM 42.1 °F 39.2 °F 37.9 °F 85% 29.56 in 10.0 mi East 4.6 mph - N/A   Overcast
5:54 AM 44.1 °F 42.5 °F 39.9 °F 85% 29.54 in 10.0 mi ENE 3.5 mph - N/A   Overcast
6:54 AM 46.0 °F 43.9 °F 41.0 °F 83% 29.52 in 10.0 mi ESE 4.6 mph - N/A   Overcast
7:06 AM 46.4 °F 42.9 °F 41.0 °F 81% 29.51 in 10.0 mi ESE 6.9 mph - N/A   Overcast
7:38 AM 46.4 °F 43.5 °F 42.8 °F 87% 29.52 in 10.0 mi ESE 5.8 mph - N/A   Overcast
7:54 AM 46.9 °F - 42.1 °F 83% 29.55 in 10.0 mi East 4.6 mph - N/A   Overcast
8:54 AM 41.0 °F 32.8 °F 37.0 °F 86% 29.57 in 8.0 mi North 16.1 mph - N/A   Overcast
9:54 AM 37.0 °F 26.7 °F 33.1 °F 86% 29.61 in 8.0 mi North 19.6 mph - N/A   Overcast
10:03 AM 37.4 °F 26.6 °F 33.8 °F 87% 29.61 in 8.0 mi NNW 21.9 mph 27.6 mph N/A   Overcast
10:12 AM 35.6 °F 24.0 °F 32.0 °F 87% 29.61 in 8.0 mi NNW 23.0 mph 28.8 mph N/A   Overcast
10:54 AM 33.1 °F 20.3 °F 28.9 °F 85% 29.68 in 7.0 mi NNW 24.2 mph 35.7 mph N/A   Overcast
11:54 AM 30.9 °F 19.1 °F 27.0 °F 85% 29.70 in 10.0 mi North 18.4 mph 32.2 mph N/A   Overcast
12:21 PM 30.2 °F 17.4 °F 26.6 °F 86% 29.73 in 10.0 mi NNW 20.7 mph - N/A   Overcast
12:54 PM 30.9 °F 18.1 °F 26.1 °F 82% 29.78 in 10.0 mi NNW 21.9 mph 28.8 mph N/A   Overcast
1:54 PM 30.9 °F 18.7 °F 25.0 °F 79% 29.85 in 10.0 mi NNW 19.6 mph 28.8 mph N/A   Overcast
2:54 PM 30.0 °F 17.5 °F 24.1 °F 79% 29.91 in 10.0 mi NNW 19.6 mph - N/A   Overcast
3:54 PM 28.9 °F 15.4 °F 23.0 °F 78% 29.95 in 10.0 mi NNW 21.9 mph 26.5 mph N/A   Overcast
4:13 PM 30.2 °F 17.1 °F 21.2 °F 69% 29.93 in 10.0 mi NNW 21.9 mph - N/A   Overcast
4:54 PM 28.9 °F 17.3 °F 21.9 °F 75% 30.01 in 10.0 mi NNW 16.1 mph - N/A   Overcast
5:54 PM 28.9 °F 16.9 °F 21.9 °F 75% 30.05 in 10.0 mi NNW 17.3 mph - N/A   Overcast
6:54 PM 28.9 °F 16.5 °F 23.0 °F 78% 30.10 in 10.0 mi NNW 18.4 mph 24.2 mph N/A   Overcast
7:08 PM 28.4 °F 15.8 °F 23.0 °F 80% 30.08 in 10.0 mi NNW 18.4 mph - N/A   Overcast
7:54 PM 28.0 °F 14.9 °F 21.9 °F 78% 30.13 in 10.0 mi NNW 19.6 mph 25.3 mph N/A   Overcast
8:54 PM 27.0 °F 14.3 °F 21.0 °F 78% 30.15 in 10.0 mi North 17.3 mph - N/A   Overcast
9:10 PM 26.6 °F 12.7 °F 21.2 °F 80% 30.12 in 10.0 mi North 20.7 mph - N/A   Overcast
9:54 PM 26.1 °F 13.6 °F 19.9 °F 78% 30.19 in 10.0 mi North 16.1 mph - N/A   Overcast
10:37 PM 26.6 °F 14.7 °F 19.4 °F 74% 30.19 in 10.0 mi North 15.0 mph 20.7 mph N/A   Overcast
10:54 PM 26.1 °F 15.0 °F 19.0 °F 75% 30.23 in 10.0 mi North 12.7 mph - N/A   Overcast
11:04 PM 26.6 °F 15.2 °F 19.4 °F 74% 30.19 in 10.0 mi North 13.8 mph - N/A   Overcast
11:54 PM 24.8 °F 14.6 °F 17.6 °F 74% 30.23 in 10.0 mi North 10.4 mph - N/A   Overcast